Regional Weather Roundup
Issued by NWS

Home | Current Version | Previous Version | Graphics & Text | Print | Product List | Glossary On
Versions: 1 2 3 4 5 6 7 8 9 10 11 12 13 14 15 16 17 18 19 20 21 22 23 24 25 26 27 28 29 30 31 32 33 34 35 36 37 38 39 40 41 42 43 44 45 46 47 48 49 50
000
ASUS44 KMEG 051910
RWRTN
TENNESSEE HOURLY STATE WEATHER ROUNDUP
NATIONAL WEATHER SERVICE MEMPHIS TN
200 PM CDT TUE MAY 05 2015

TNZ002-004-019-021-049-052-054-088>092-052000-
WEST TENNESSEE

CITY           SKY/WX    TMP DP  RH WIND       PRES   REMARKS
MEMPHIS INTL   MOSUNNY   85  54  34 SE12      30.19F
NWS MEMPHIS      N/A     85 N/A N/A MISG        N/A
JACKSON        MOSUNNY   84  55  36 E5        30.20F
DYERSBURG      MOSUNNY   84  52  32 SE6       30.19F
PARIS          SUNNY     81  54  39 S8        30.22F
LEXINGTON      SUNNY     82  52  34 S8        30.21F
$$

TNZ008-025-027-028-033-062-065-066-052000-
NORTH MIDDLE TENNESSEE

CITY           SKY/WX    TMP DP  RH WIND       PRES   REMARKS
NASHVILLE      MOSUNNY   85  51  31 SW8       30.24F
CLARKSVILLE    PTSUNNY   81  52  36 S3        30.22F
SMYRNA         MOSUNNY   83  54  36 S7        30.25F
COOKEVILLE     SUNNY     84  54  34 VRB6      30.26F
CROSSVILLE     PTSUNNY   78  47  33 SE9       30.30F
$$

TNZ061-075-076-078-094-096-097-052000-
SOUTH MIDDLE TENNESSEE

CITY           SKY/WX    TMP DP  RH WIND       PRES   REMARKS
FAYETTEVILLE     N/A     81  52  36 VRB3      30.26F
TULLAHOMA      MOSUNNY   81  52  36 S6        30.27F
WINCHESTER     SUNNY     81  54  39 VRB3      30.26F
MCMINNVILLE    SUNNY     82  55  39 CALM      30.27F
COLUMBIA       MOSUNNY   82  55  39 S9        30.23F
SHELBYVILLE    MOSUNNY   81  57  44 VRB5      30.26F
$$

TNZ017-018-042-046-047-052000-
NORTHEAST TENNESSEE

CITY           SKY/WX    TMP DP  RH WIND       PRES   REMARKS
TRI CITIES     MOSUNNY   82  49  31 E5        30.28F
ELIZABETHTON   CLEAR     81  52  36 SW8       30.28F
$$

TNZ012-013-036-069-073-074-052000-
CENTRAL EAST TENNESSEE

CITY           SKY/WX    TMP DP  RH WIND       PRES   REMARKS
KNOXVILLE      MOSUNNY   81  52  36 N5        30.26F
OAK RIDGE      SUNNY     83  51  33 VRB3      30.27F
GATLINBURG     CLEAR     81  50  34 N6        30.26F
MORRISTOWN     CLEAR     81  54  39 CALM      30.28F
$$

TNZ083-085-099-052000-
SOUTHEAST TENNESSEE

CITY           SKY/WX    TMP DP  RH WIND       PRES   REMARKS
CHATTANOOGA    MOSUNNY   82  54  37 N6        30.26F
$$

SKY/WX REPORTED AS FAIR MEANS FEW OR NO CLOUDS BELOW
12 THOUSAND FEET.




USA.gov is the U.S. government's official web portal to all federal, state and local government web resources and services.